Volk, WI

9:43 PM CDT on April 29, 2017 (GMT -0500)
Volk

Weather History for KVOK - August, 2014

Change the Weather History Date:

Monday, August 11, 2014

  Actual Average Record
Temperature  
Mean Temperature 66 °F -  
Max Temperature 79 °F 76 °F 89 °F (2002)
Min Temperature 55 °F 60 °F 41 °F (2012)
Cooling Degree Days 2    
Growing Degree Days 16 (Base 50)    
Moisture  
Dew Point 62 °F    
Average Humidity 97    
Maximum Humidity 100    
Minimum Humidity 69    
Precipitation  
Precipitation 0.23 in - - ()
Sea Level Pressure  
Sea Level Pressure 29.94 in    
Wind  
Wind Speed 3 mph (WNW)    
Max Wind Speed 20 mph    
Max Gust Speed 25 mph    
Visibility 5 miles    
Events Fog , Rain , Thunderstorm    
Averages and records for this station are not official NWS values.
T = Trace of Precipitation, MM = Missing Value Source: NWS Daily Summary

Daily Weather History Graph

Daily Weather History Graph

Search for Another Location

Airport or City:

Trip Planner

Search our weather history database for the weather conditions in past years. The results will help you decide how hot, cold, wet, or windy it might be!

Date:

Astronomy

Aug. 11, 2014 Rise Set
Actual Time 6:00 AM CDT 8:11 PM CDT
Civil Twilight 5:28 AM CDT 8:42 PM CDT
Nautical Twilight 4:49 AM CDT 9:21 PM CDT
Astronomical Twilight 4:06 AM CDT 10:04 PM CDT
Moon 8:34 PM CDT (8/11) 7:09 AM CDT (8/11)
Length of Visible Light 15h 13m
Length of Day
14h 10m
Full, 99% of the Moon is Illuminated
Aug 11
Full
Aug 17
Last Quarter
Aug 25
New
Sep 2
First Quarter
Sep 8
Full

Hourly Weather History & Observations

Time (CDT) Temp. Dew Point Humidity Pressure Visibility Wind Dir Wind Speed Gust Speed Precip Events Conditions
12:58 AM 67.3 °F 67.3 °F 100% 29.99 in 10.0 mi NNE 2.3 mph - N/A   Mostly Cloudy
1:23 AM 64.4 °F 64.4 °F 100% 29.98 in 0.8 mi Calm Calm - N/A   Clear
1:33 AM 64.4 °F 64.4 °F 100% 29.97 in 0.8 mi Calm Calm - N/A   Clear
1:38 AM 62.6 °F 62.6 °F 100% 29.98 in 0.5 mi Calm Calm - N/A Fog Fog
1:43 AM 64.4 °F 64.4 °F 100% 29.98 in 1.0 mi Calm Calm - N/A   Clear
1:48 AM 64.4 °F 64.4 °F 100% 29.97 in 9.0 mi Calm Calm - N/A   Clear
1:58 AM 63.5 °F 63.5 °F 100% 29.97 in 6.0 mi Calm Calm - N/A   Clear
2:08 AM 62.6 °F 62.6 °F 100% 29.97 in 1.8 mi Calm Calm - N/A   Clear
2:13 AM 62.6 °F 62.6 °F 100% 29.97 in 0.8 mi Calm Calm - N/A   Clear
2:18 AM 62.6 °F 62.6 °F 100% 29.97 in 1.0 mi South 2.3 mph - N/A   Clear
2:23 AM 62.6 °F 62.6 °F 100% 29.97 in 2.5 mi Calm Calm - N/A   Clear
2:28 AM 62.6 °F 62.6 °F 100% 29.97 in 1.0 mi Calm Calm - N/A   Clear
2:33 AM 60.8 °F 60.8 °F 100% 29.96 in 1.2 mi South 3.5 mph - N/A   Clear
2:38 AM 62.6 °F 62.6 °F 100% 29.97 in 5.0 mi South 2.3 mph - N/A   Clear
2:43 AM 62.6 °F 62.6 °F 100% 29.96 in 1.0 mi Calm Calm - N/A   Clear
2:48 AM 60.8 °F 60.8 °F 100% 29.96 in 0.5 mi Calm Calm - N/A Fog Fog
2:58 AM 62.6 °F 62.6 °F 100% 29.97 in 1.0 mi West 2.3 mph - N/A   Clear
3:03 AM 62.6 °F 62.6 °F 100% 29.96 in 6.0 mi WNW 1.2 mph - N/A   Clear
3:13 AM 60.8 °F 60.8 °F 100% 29.96 in 2.0 mi WNW 2.3 mph - N/A   Clear
3:18 AM 60.8 °F 60.8 °F 100% 29.96 in 0.8 mi West 2.3 mph - N/A   Clear
3:23 AM 59.0 °F 59.0 °F 100% 29.96 in 0.5 mi Calm Calm - N/A Fog Fog
3:33 AM 59.0 °F 59.0 °F 100% 29.96 in 0.2 mi Calm Calm - N/A Fog Fog
3:38 AM 59.0 °F 59.0 °F 100% 29.96 in 0.5 mi Calm Calm - N/A Fog Fog
3:43 AM 59.0 °F 59.0 °F 100% 29.95 in 1.2 mi Calm Calm - N/A   Clear
3:48 AM 59.0 °F 59.0 °F 100% 29.95 in 0.5 mi Calm Calm - N/A Fog Fog
3:53 AM 59.0 °F 59.0 °F 100% 29.95 in 0.2 mi Calm Calm - N/A Fog Fog
3:58 AM 59.0 °F 59.0 °F 100% 29.95 in 0.5 mi Calm Calm - N/A Fog Fog
4:03 AM 59.0 °F 59.0 °F 100% 29.95 in 1.0 mi Calm Calm - N/A   Clear
4:08 AM 59.0 °F 59.0 °F 100% 29.95 in 2.5 mi Calm Calm - N/A   Clear
4:18 AM 59.0 °F 59.0 °F 100% 29.95 in 8.0 mi West 2.3 mph - N/A   Clear
4:28 AM 57.2 °F 57.2 °F 100% 29.95 in 0.8 mi West 4.6 mph - N/A   Clear
4:33 AM 57.2 °F 57.2 °F 100% 29.95 in 0.5 mi West 4.6 mph - N/A Fog Fog
4:48 AM 55.4 °F 55.4 °F 100% 29.95 in 0.2 mi West 4.6 mph - N/A Fog Fog
4:58 AM 57.2 °F 57.2 °F 100% 29.95 in 0.5 mi WSW 3.5 mph - N/A Fog Fog
5:03 AM 57.2 °F 57.2 °F 100% 29.94 in 0.5 mi SW 2.3 mph - N/A Fog Fog
5:23 AM 57.2 °F 57.2 °F 100% 29.94 in 1.2 mi Calm Calm - N/A   Scattered Clouds
5:28 AM 57.2 °F 57.2 °F 100% 29.94 in 3.0 mi Calm Calm - N/A   Scattered Clouds
5:33 AM 57.2 °F 57.2 °F 100% 29.94 in 1.2 mi West 1.2 mph - N/A   Partly Cloudy
5:38 AM 59.0 °F 59.0 °F 100% 29.94 in 1.0 mi Calm Calm - N/A   Partly Cloudy
5:43 AM 59.0 °F 59.0 °F 100% 29.94 in 0.8 mi Calm Calm - N/A   Partly Cloudy
5:48 AM 59.0 °F 59.0 °F 100% 29.94 in 1.2 mi Calm Calm - N/A   Partly Cloudy
5:53 AM 59.0 °F 59.0 °F 100% 29.94 in 4.0 mi Calm Calm - N/A   Clear
5:58 AM 58.1 °F 58.1 °F 100% 29.94 in 4.0 mi Calm Calm - N/A   Clear
6:13 AM 59.0 °F 59.0 °F 100% 29.93 in 0.8 mi East 3.5 mph - N/A   Clear
6:18 AM 59.0 °F 59.0 °F 100% 29.93 in 0.5 mi East 4.6 mph - N/A Fog Fog
6:28 AM 57.2 °F 57.2 °F 100% 29.93 in 0.8 mi East 2.3 mph - N/A   Clear
6:33 AM 59.0 °F 59.0 °F 100% 29.93 in 3.0 mi Calm Calm - N/A   Clear
6:58 AM 61.7 °F 61.7 °F 100% 29.93 in 9.0 mi Calm Calm - N/A   Partly Cloudy
7:58 AM 63.0 °F 63.0 °F 100% 29.93 in 10.0 mi SSE 4.6 mph - N/A   Clear
8:58 AM 68.0 °F 68.0 °F 100% 29.91 in 10.0 mi South 5.8 mph - N/A   Mostly Cloudy
9:58 AM 71.6 °F 69.8 °F 94% 29.90 in - South 4.6 mph - N/A   Mostly Cloudy
10:58 AM 75.2 °F 68.0 °F 78% 29.89 in 10.0 mi Variable 5.8 mph - N/A   Mostly Cloudy
11:58 AM 77.0 °F 68.0 °F 74% 29.88 in 10.0 mi SW 12.7 mph - N/A   Mostly Cloudy
12:58 PM 78.8 °F 68.0 °F 69% 29.86 in 10.0 mi South 8.1 mph - N/A   Mostly Cloudy
1:58 PM 78.8 °F 68.0 °F 69% 29.85 in 10.0 mi North 2.3 mph - N/A   Mostly Cloudy
2:03 PM 77.0 °F 69.8 °F 78% 29.85 in 10.0 mi West 4.6 mph - N/A   Mostly Cloudy
2:21 PM 77.0 °F 68.0 °F 74% 29.86 in 10.0 mi West 15.0 mph - N/A Rain Light Rain Showers
2:30 PM 71.6 °F 69.8 °F 94% 29.86 in 9.0 mi West 19.6 mph 25.3 mph N/A Rain Light Rain
2:42 PM 69.8 °F 68.0 °F 94% 29.87 in 10.0 mi NNW 19.6 mph 25.3 mph N/A Thunderstorm Overcast
2:58 PM 66.2 °F 66.2 °F 100% 29.90 in 10.0 mi NNW 11.5 mph 25.3 mph N/A Rain , Thunderstorm Light Rain Showers
3:08 PM 64.4 °F 64.4 °F 100% 29.90 in 2.0 mi NNW 13.8 mph - N/A Rain Rain Showers
3:24 PM 64.4 °F 64.4 °F 100% 29.89 in 5.0 mi North 13.8 mph 19.6 mph N/A Rain Light Rain Showers
3:58 PM 62.6 °F 62.6 °F 100% 29.92 in 10.0 mi NNW 12.7 mph - N/A Rain Light Rain Showers
4:10 PM 62.6 °F 62.6 °F 100% 29.91 in 10.0 mi NW 9.2 mph - N/A   Overcast
4:58 PM 62.6 °F 62.6 °F 100% 29.92 in 10.0 mi NNW 13.8 mph - N/A   Overcast
5:24 PM 62.6 °F 62.6 °F 100% 29.91 in 10.0 mi NW 12.7 mph - N/A Rain Light Rain Showers
5:58 PM 62.6 °F 62.6 °F 100% 29.92 in 10.0 mi NW 11.5 mph - N/A Rain Light Rain
6:38 PM 62.6 °F 62.6 °F 100% 29.92 in 10.0 mi NNW 9.2 mph 17.3 mph N/A   Mostly Cloudy
6:58 PM 64.4 °F 64.4 °F 100% 29.93 in 10.0 mi NNW 11.5 mph - N/A   Mostly Cloudy
7:58 PM 62.6 °F 62.6 °F 100% 29.93 in 10.0 mi NW 8.1 mph - N/A   Scattered Clouds
8:58 PM 60.8 °F 60.8 °F 100% 29.94 in 10.0 mi NW 5.8 mph - N/A   Scattered Clouds
9:58 PM 62.6 °F 62.6 °F 100% 29.93 in 10.0 mi NNW 9.2 mph - N/A   Mostly Cloudy
10:58 PM 62.6 °F 60.8 °F 94% 29.93 in 10.0 mi NNW 10.4 mph - N/A   Mostly Cloudy
11:46 PM 60.8 °F 59.0 °F 94% 29.94 in 10.0 mi NNW 10.4 mph - N/A   Overcast
11:58 PM 61.0 °F 60.3 °F 97% 29.94 in 10.0 mi NW 9.2 mph - N/A   Overcast